Volver al catálogo

COSMOS 2615

ActivoMilitarSSO
NORAD 68826·PAYLOAD·🇷🇺 Russia

Lanzado Apr 23, 2026 desde Plesetsk Cosmodrome

Loading…

Próximos Pases (próximas 24 horas)

TLE

ActualizadoSource: Space-Track

Época: Sep 14, 2026, 12:30 UTC

1 68826U 26090A   26257.52090395  .00033528  00000-0  13444-3 0  9992
2 68826  96.6347 172.8285 0011318  66.1437 294.1021 15.86336452 22838

Sigue COSMOS 2615 en tiempo real con AllMySat

Download on the App Store